Regional Weather Roundup
Issued by NWS

Home | Current Version | Previous Version | Text Only | Print | Product List | Glossary On
Versions: 1 2 3 4 5 6 7 8 9 10 11 12 13 14 15 16 17 18 19 20 21 22 23 24 25 26 27 28 29 30 31 32 33 34 35 36 37 38 39 40 41 42 43 44 45 46 47 48 49 50
000
ASUS42 KKEY 230510
RWRKEY

FLORIDA REGIONAL WEATHER ROUNDUP FOR THE FLORIDA KEYS
NATIONAL WEATHER SERVICE KEY WEST FLORIDA
100 AM EDT SAT AUG 23 2014

...SOUTH FLORIDA AND THE KEYS...

CITY           SKY/WX    TMP DP  RH WIND       PRES   REMARKS
FORT MYERS     CLEAR     79  75  87 E3        30.00S
SW REGIONAL AP CLEAR     78  72  81 CALM      30.00F
NAPLES         CLEAR     78  75  90 NE3       29.99F
MIAMI          PTCLDY    83  73  72 E7        29.99F
WEST KENDALL   CLEAR     80  72  76 E5        29.98F
HOMESTEAD      CLEAR     83  71  66 E5        29.98F
MARATHON       CLEAR     85  72  65 E9        29.98F HX  91
BOCA CHICA NAS PTCLDY    84  75  74 NE5       29.98F HX  92
KEY WEST INTL  PTCLDY    85  74  69 E7        29.99F HX  92

...INTERNATIONAL WEATHER...

CITY           SKY/WX    TMP DP  RH WIND       PRES   REMARKS
NASSAU BAHAMAS PTCLDY    82  75  78 NE5       29.98F
CANCUN MEXICO  PTCLDY    81  77  89 CALM      29.99F
COZUMEL MEXICO PTCLDY    79  77  94 CALM      29.99S

ADJACENT COASTAL WATERS...

STATION/POSITION TIME  SKY/WX   TEMP    WIND        PRES    WAVE
                                AIR SEA DIR/SP/G            HT/PER
                 (UTC)          (F)     (DEG/KT/KT) (MB)    (FT/S)
PULASKI SHOAL LI 0500            86     100/  6/  8 1015.1F
SAND KEY         0500            85      80/ 11/ 13 1015.1F
SOMBRERO KEY     0500            85      90/ 14/ 16 1015.7F
LONG KEY         0500            86 89  100/ 13/ 17 1015.8F
MOLASSES REEF    0500            85 87   70/ 11/ 12 1015.1F
FOWEY ROCKS      0500            85 87   80/  8/  9 1015.7F
Buoy 42080       NOT AVBL

$$



USA.gov is the U.S. government's official web portal to all federal, state and local government web resources and services.